Location: Forest
(37.3641°N, 79.2902°W)
Time: 00:54:48
(UTC+00:00)

ACS3 Solar Sail - Pass Details

Date: 09 October 2024
Orbit: 961 x 1022 km, 97.5° (Epoch: 03 November)

Event Time Altitude Azimuth Distance (km) Brightness Sun altitude
Exits shadow 01:14:54 81° 61° (ENE) 1,042 1.7 -29.6°
Drops below altitude 10° 01:21:14 10° 350° (N) 2,836 4.5 -30.8°
Sets 01:23:45 0° 350° (N) 3,793 5.2 -31.2°
